User: anonymous   Login
Location: Baia Mare
(47.6567°N, 23.5850°E)
Time: 13:15:36
(UTC+03:00)
Language:

ISS - Orbit

View from above orbital plane
View from above orbital plane
View from above satellite
View from above satellite

Ground track
Ground track

The orbit data is extracted from the following two-line orbital elements,

1 25544U 98067A   19287.22912021  .00000590  00000-0  18262-4 0  9993
2 25544  51.6426 130.9734 0007279 146.4313  13.5449 15.50197180193725
Epoch (UTC): 14 October 2019 05:29:55
Eccentricity: 0.0007279
inclination: 51.6426°
perigee height: 411 km
apogee height: 421 km
right ascension of ascending node: 130.9734°
argument of perigee: 146.4313°
revolutions per day: 15.50197180
mean anomaly at epoch: 13.5449°
orbit number at epoch: 19372

The dashed part of the orbit path shows where the satellite is in the earth's shadow,  

DLR